NOAA 16 DEB, 41402

Orbit data source: Space-Track

NOAA 16 DEB, 41402 is space debris in SSO originally from a launch on Thu, 21 Sep 2000 UTC launched from the Air Force Western Test Range (AFWTR). Debris objects in space refer to the collection of defunct objects orbiting the Earth. Examples of debris include non-operational satellites, rocket bodies, and fragments generated from explosions, collisions, or faulty payload assembly.

Loading next visibility...
Identifier
41402, 2000-055KF
Orbit
SSO
Country
Flag of USUS
Related business
Manufacturer
Unknown
Mission
Spacecraft
Bus & Motor
Unknown
Mass
Unknown
Launch date (UTC)
2000-09-21 (26 years ago)
Launch vehicle
Unknown
Launch site
Air Force Western Test Range (AFWTR)
Object type
Payload
Rocket body
Debris
Shape & HBR
Unknown shape, 0.1 m
Radar Cross Section
Small (<0.1 m²)

Expand to show TLE details & history
Last TLE update: 2 days ago

TLE from 2 days ago
0 NOAA 16 DEB
1 41402U 00055KF  26110.30003029  .00002064  00000-0  10116-2 0  9991
2 41402  98.6757 140.4835 0030944  59.3161 301.1058 14.18633112524161
Epoch: 2026-04-20T07:12Z
TLE epoch observation values (Epoch: 2026-04-20T07:12:02.617Z)
Latitude
-0.00001°
Longitude
-175.91955°
Altitude
821.418 km
Speed
7.448 km/s
True Right ascension
09h 21m 56s
True Declination
0° 00' 00"
Sunlit
Object was in daylight at epoch
Visualization orbit readout
Latitude
Unknown
Longitude
Unknown
Altitude
Unknown
Speed
Unknown
Apparent Right ascension
Unknown
Apparent Declination
Unknown
Sunlit
N/A
Visualization observer readout
Local Sidereal Time
18:08:26
Azimuth
Unknown
Elevation
Unknown
Doppler factor
Unknown
Orbital elements
Apogee altitude
849.434 km
Perigee altitude
804.842 km
Semi-major axis
7,205.275 km
Eccentricity
0.00309
Inclination
98.6757°
RAAN
140.4835°
Arg. of periapsis
59.3161°
True anomaly
300.80159°
Mean anomaly
301.1058°
Eccentric anomaly
300.95375°
Mean motion
3.54868 °/min
Orbital period
101.45 mins
BSTAR
0.0010116
Loading maneuver chart data...
Computing Atmospheric mass density...
Loading historical data...
Loading historical data...
Loading historical data...
Loading historical data...
Loading historical data...
Loading historical data...
Loading historical data...

Documentation

Showing up to 5 results
|